Time,TemperatureF,DewpointF,PressureIn,WindDirection,WindDirectionDegrees,WindSpeedMPH,WindSpeedGustMPH,Humidity,HourlyPrecipIn,Conditions,Clouds,dailyrainin,SoftwareType,DateUTC
2013-06-26 00:02:00,76.3,69.0,29.75,WSW,253,0.0,3.0,79,0.00,,,0.00,weatherlink.com 1.10,2013-06-26 04:02:00,
2013-06-26 00:17:00,76.0,69.0,29.75,West,259,0.0,3.0,79,0.00,,,0.00,weatherlink.com 1.10,2013-06-26 04:17:00,
2013-06-26 00:32:00,75.7,69.0,29.74,West,268,1.0,4.0,79,0.00,,,0.00,weatherlink.com 1.10,2013-06-26 04:32:00,
2013-06-26 00:47:00,75.6,69.0,29.74,WNW,285,2.0,4.0,80,0.00,,,0.00,weatherlink.com 1.10,2013-06-26 04:47:00,
2013-06-26 01:02:00,75.4,69.0,29.74,West,281,2.0,4.0,80,0.00,,,0.00,weatherlink.com 1.10,2013-06-26 05:02:00,
2013-06-26 01:17:00,75.3,69.0,29.74,West,277,2.0,3.0,80,0.00,,,0.00,weatherlink.com 1.10,2013-06-26 05:17:00,
2013-06-26 01:32:00,75.0,69.0,29.74,WSW,253,1.0,4.0,81,0.00,,,0.00,weatherlink.com 1.10,2013-06-26 05:32:00,
2013-06-26 01:47:00,74.8,69.0,29.73,WNW,295,3.0,5.0,81,0.00,,,0.00,weatherlink.com 1.10,2013-06-26 05:47:00,
2013-06-26 02:02:00,75.0,69.0,29.73,WSW,245,3.0,5.0,81,0.00,,,0.00,weatherlink.com 1.10,2013-06-26 06:02:00,
2013-06-26 02:17:00,75.2,69.0,29.72,WNW,285,1.0,5.0,80,0.00,,,0.00,weatherlink.com 1.10,2013-06-26 06:17:00,
2013-06-26 02:32:00,75.1,69.0,29.72,West,263,0.0,4.0,80,0.00,,,0.00,weatherlink.com 1.10,2013-06-26 06:32:00,
2013-06-26 02:47:00,74.8,69.0,29.71,West,264,2.0,3.0,81,0.00,,,0.00,weatherlink.com 1.10,2013-06-26 06:47:00,
2013-06-26 03:02:00,74.6,68.0,29.71,WNW,287,0.0,3.0,81,0.00,,,0.00,weatherlink.com 1.10,2013-06-26 07:02:00,
2013-06-26 03:17:00,74.6,68.0,29.71,SW,214,0.0,3.0,81,0.00,,,0.00,weatherlink.com 1.10,2013-06-26 07:17:00,
2013-06-26 03:32:00,74.2,68.0,29.71,WSW,246,0.0,3.0,81,0.00,,,0.00,weatherlink.com 1.10,2013-06-26 07:32:00,
2013-06-26 03:47:00,74.1,68.0,29.72,WSW,256,1.0,4.0,81,0.00,,,0.00,weatherlink.com 1.10,2013-06-26 07:47:00,
2013-06-26 04:02:00,74.0,68.0,29.73,WSW,253,1.0,5.0,82,0.00,,,0.00,weatherlink.com 1.10,2013-06-26 08:02:00,
2013-06-26 04:17:00,73.8,68.0,29.73,WNW,300,1.0,5.0,82,0.00,,,0.00,weatherlink.com 1.10,2013-06-26 08:17:00,
2013-06-26 04:32:00,73.6,68.0,29.74,West,278,1.0,5.0,82,0.00,,,0.00,weatherlink.com 1.10,2013-06-26 08:32:00,
2013-06-26 04:47:00,73.4,68.0,29.74,WNW,287,1.0,4.0,83,0.00,,,0.00,weatherlink.com 1.10,2013-06-26 08:47:00,
2013-06-26 05:02:00,73.2,68.0,29.74,West,270,0.0,1.0,83,0.00,,,0.00,weatherlink.com 1.10,2013-06-26 09:02:00,
2013-06-26 05:17:00,72.9,68.0,29.74,West,270,0.0,1.0,83,0.00,,,0.00,weatherlink.com 1.10,2013-06-26 09:17:00,
2013-06-26 05:32:00,72.5,67.0,29.74,West,270,0.0,0.0,84,0.00,,,0.00,weatherlink.com 1.10,2013-06-26 09:32:00,
2013-06-26 05:47:00,73.1,68.0,29.75,West,270,0.0,1.0,83,0.00,,,0.00,weatherlink.com 1.10,2013-06-26 09:47:00,
2013-06-26 06:02:00,73.7,68.0,29.74,West,268,0.0,1.0,82,0.00,,,0.00,weatherlink.com 1.10,2013-06-26 10:02:00,
2013-06-26 06:17:00,73.9,68.0,29.74,West,278,0.0,3.0,82,0.00,,,0.00,weatherlink.com 1.10,2013-06-26 10:17:00,
2013-06-26 06:32:00,74.3,68.0,29.74,WSW,239,0.0,4.0,81,0.00,,,0.00,weatherlink.com 1.10,2013-06-26 10:32:00,
2013-06-26 06:47:00,74.8,68.0,29.74,WNW,290,0.0,2.0,80,0.00,,,0.00,weatherlink.com 1.10,2013-06-26 10:47:00,
2013-06-26 07:02:00,75.1,69.0,29.74,NNW,346,0.0,3.0,80,0.00,,,0.00,weatherlink.com 1.10,2013-06-26 11:02:00,
2013-06-26 07:17:00,75.8,69.0,29.74,SW,229,0.0,2.0,78,0.00,,,0.00,weatherlink.com 1.10,2013-06-26 11:17:00,
2013-06-26 07:32:00,77.6,69.0,29.74,West,266,0.0,4.0,75,0.00,,,0.00,weatherlink.com 1.10,2013-06-26 11:32:00,
2013-06-26 07:48:00,78.5,69.0,29.75,NW,311,0.0,4.0,72,0.00,,,0.00,weatherlink.com 1.10,2013-06-26 11:48:00,
2013-06-26 08:02:00,78.8,69.0,29.75,NW,326,1.0,3.0,73,0.00,,,0.00,weatherlink.com 1.10,2013-06-26 12:02:00,
2013-06-26 08:17:00,78.5,69.0,29.75,WSW,249,1.0,4.0,73,0.00,,,0.00,weatherlink.com 1.10,2013-06-26 12:17:00,
2013-06-26 08:32:00,78.5,70.0,29.76,West,262,1.0,3.0,74,0.00,,,0.00,weatherlink.com 1.10,2013-06-26 12:32:00,
2013-06-26 08:47:00,80.6,70.0,29.76,NE,48,1.0,4.0,70,0.00,,,0.00,weatherlink.com 1.10,2013-06-26 12:47:00,
2013-06-26 09:02:00,81.6,70.0,29.75,NNE,20,1.0,3.0,68,0.00,,,0.00,weatherlink.com 1.10,2013-06-26 13:02:00,
2013-06-26 09:18:00,81.4,69.0,29.75,NW,326,1.0,5.0,67,0.00,,,0.00,weatherlink.com 1.10,2013-06-26 13:18:00,
2013-06-26 09:33:00,82.7,70.0,29.75,SW,236,2.0,4.0,65,0.00,,,0.00,weatherlink.com 1.10,2013-06-26 13:33:00,
2013-06-26 09:48:00,81.7,69.0,29.75,WSW,239,1.0,4.0,66,0.00,,,0.00,weatherlink.com 1.10,2013-06-26 13:48:00,
2013-06-26 10:03:00,82.7,70.0,29.76,West,270,0.0,4.0,66,0.00,,,0.00,weatherlink.com 1.10,2013-06-26 14:03:00,
2013-06-26 10:18:00,84.7,70.0,29.75,NW,321,1.0,3.0,61,0.00,,,0.00,weatherlink.com 1.10,2013-06-26 14:18:00,
2013-06-26 10:33:00,85.4,70.0,29.75,WSW,246,3.0,3.0,60,0.00,,,0.00,weatherlink.com 1.10,2013-06-26 14:33:00,
2013-06-26 10:48:00,87.6,70.0,29.75,North,350,1.0,3.0,56,0.00,,,0.00,weatherlink.com 1.10,2013-06-26 14:48:00,
2013-06-26 11:03:00,85.5,69.0,29.75,SSW,205,0.0,3.0,59,0.00,,,0.00,weatherlink.com 1.10,2013-06-26 15:03:00,
2013-06-26 11:18:00,85.4,70.0,29.75,WSW,252,1.0,2.0,60,0.00,,,0.00,weatherlink.com 1.10,2013-06-26 15:18:00,
2013-06-26 11:33:00,84.8,69.0,29.75,NE,49,2.0,4.0,60,0.00,,,0.00,weatherlink.com 1.10,2013-06-26 15:33:00,
2013-06-26 11:48:00,87.0,70.0,29.75,East,95,2.0,4.0,58,0.00,,,0.00,weatherlink.com 1.10,2013-06-26 15:48:00,
2013-06-26 12:03:00,85.9,70.0,29.75,NE,56,0.0,2.0,60,0.00,,,0.00,weatherlink.com 1.10,2013-06-26 16:03:00,
2013-06-26 12:18:00,83.1,70.0,29.75,NNW,334,1.0,4.0,65,0.00,,,0.00,weatherlink.com 1.10,2013-06-26 16:18:00,
2013-06-26 12:33:00,82.7,71.0,29.75,NE,39,1.0,3.0,68,0.00,,,0.00,weatherlink.com 1.10,2013-06-26 16:33:00,
2013-06-26 12:48:00,82.7,70.0,29.75,ENE,73,2.0,3.0,65,0.00,,,0.00,weatherlink.com 1.10,2013-06-26 16:48:00,
2013-06-26 13:03:00,81.5,71.0,29.75,North,4,2.0,4.0,70,0.00,,,0.00,weatherlink.com 1.10,2013-06-26 17:03:00,
2013-06-26 13:18:00,81.0,71.0,29.76,NE,39,3.0,4.0,71,0.00,,,0.00,weatherlink.com 1.10,2013-06-26 17:18:00,
2013-06-26 13:33:00,81.4,72.0,29.75,SE,136,0.0,3.0,72,0.00,,,0.00,weatherlink.com 1.10,2013-06-26 17:33:00,
2013-06-26 13:49:00,83.7,73.0,29.75,NE,36,1.0,2.0,69,0.00,,,0.00,weatherlink.com 1.10,2013-06-26 17:49:00,
2013-06-26 14:03:00,82.8,72.0,29.75,East,91,0.0,2.0,69,0.00,,,0.00,weatherlink.com 1.10,2013-06-26 18:03:00,
2013-06-26 14:18:00,82.4,72.0,29.75,South,170,1.0,2.0,71,0.00,,,0.00,weatherlink.com 1.10,2013-06-26 18:18:00,
2013-06-26 14:33:00,84.2,72.0,29.75,North,4,1.0,2.0,66,0.00,,,0.00,weatherlink.com 1.10,2013-06-26 18:33:00,
2013-06-26 14:48:00,82.9,70.0,29.76,SE,141,0.0,3.0,66,0.00,,,0.00,weatherlink.com 1.10,2013-06-26 18:48:00,
2013-06-26 15:03:00,83.9,71.0,29.75,NE,43,1.0,2.0,66,0.00,,,0.00,weatherlink.com 1.10,2013-06-26 19:03:00,
2013-06-26 15:18:00,84.0,71.0,29.75,WSW,242,1.0,4.0,65,0.00,,,0.00,weatherlink.com 1.10,2013-06-26 19:18:00,
2013-06-26 15:33:00,84.3,71.0,29.74,SE,137,1.0,6.0,64,0.00,,,0.00,weatherlink.com 1.10,2013-06-26 19:33:00,
2013-06-26 15:48:00,82.0,71.0,29.75,ESE,120,0.0,2.0,70,0.00,,,0.00,weatherlink.com 1.10,2013-06-26 19:48:00,
2013-06-26 16:03:00,80.3,70.0,29.76,ESE,118,0.0,3.0,70,0.00,,,0.00,weatherlink.com 1.10,2013-06-26 20:03:00,
2013-06-26 16:18:00,80.4,70.0,29.75,SSE,149,0.0,3.0,71,0.00,,,0.00,weatherlink.com 1.10,2013-06-26 20:18:00,
2013-06-26 16:33:00,80.2,69.0,29.75,East,91,1.0,4.0,69,0.00,,,0.00,weatherlink.com 1.10,2013-06-26 20:33:00,
2013-06-26 16:48:00,79.6,69.0,29.75,SW,215,0.0,5.0,70,0.00,,,0.00,weatherlink.com 1.10,2013-06-26 20:48:00,
2013-06-26 17:03:00,78.9,70.0,29.75,South,180,0.0,2.0,73,0.00,,,0.00,weatherlink.com 1.10,2013-06-26 21:03:00,
2013-06-26 17:18:00,78.9,69.0,29.76,SE,139,0.0,3.0,71,0.00,,,0.00,weatherlink.com 1.10,2013-06-26 21:18:00,
2013-06-26 17:33:00,78.8,69.0,29.76,SE,139,1.0,4.0,73,0.00,,,0.00,weatherlink.com 1.10,2013-06-26 21:33:00,
2013-06-26 17:48:00,79.7,68.0,29.76,North,357,3.0,10.0,68,0.00,,,0.00,weatherlink.com 1.10,2013-06-26 21:48:00,
2013-06-26 18:03:00,78.4,69.0,29.76,NE,46,1.0,3.0,73,0.00,,,0.00,weatherlink.com 1.10,2013-06-26 22:03:00,
2013-06-26 18:18:00,75.6,71.0,29.78,NW,313,0.0,2.0,84,0.13,,,0.13,weatherlink.com 1.10,2013-06-26 22:18:00,
2013-06-26 18:33:00,73.7,70.0,29.79,NNW,329,0.0,1.0,89,0.14,,,0.14,weatherlink.com 1.10,2013-06-26 22:33:00,
2013-06-26 18:48:00,72.7,70.0,29.79,SE,127,0.0,1.0,91,0.16,,,0.16,weatherlink.com 1.10,2013-06-26 22:48:00,
2013-06-26 19:03:00,72.6,70.0,29.80,ESE,122,0.0,1.0,92,0.16,,,0.16,weatherlink.com 1.10,2013-06-26 23:03:00,
2013-06-26 19:18:00,72.7,70.0,29.79,SE,132,0.0,2.0,92,0.03,,,0.16,weatherlink.com 1.10,2013-06-26 23:18:00,
2013-06-26 19:33:00,72.9,71.0,29.80,SE,133,0.0,1.0,92,0.02,,,0.16,weatherlink.com 1.10,2013-06-26 23:33:00,
2013-06-26 19:48:00,72.5,70.0,29.80,SSE,164,0.0,1.0,92,0.00,,,0.16,weatherlink.com 1.10,2013-06-26 23:48:00,
2013-06-26 20:03:00,72.6,70.0,29.80,SSE,164,0.0,1.0,92,0.00,,,0.16,weatherlink.com 1.10,2013-06-27 00:03:00,
2013-06-26 20:18:00,72.0,70.0,29.80,SE,141,0.0,1.0,92,0.00,,,0.16,weatherlink.com 1.10,2013-06-27 00:18:00,
2013-06-26 20:33:00,71.1,69.0,29.80,SE,141,0.0,0.0,93,0.00,,,0.16,weatherlink.com 1.10,2013-06-27 00:33:00,
2013-06-26 20:48:00,70.6,69.0,29.81,SE,141,0.0,1.0,93,0.00,,,0.16,weatherlink.com 1.10,2013-06-27 00:48:00,
2013-06-26 21:03:00,70.5,69.0,29.82,NE,44,0.0,1.0,94,0.00,,,0.16,weatherlink.com 1.10,2013-06-27 01:03:00,
2013-06-26 21:18:00,70.4,69.0,29.83,South,173,0.0,1.0,94,0.00,,,0.16,weatherlink.com 1.10,2013-06-27 01:18:00,
2013-06-26 21:34:00,70.0,68.0,29.83,East,91,0.0,1.0,94,0.00,,,0.16,weatherlink.com 1.10,2013-06-27 01:34:00,
2013-06-26 21:49:00,69.7,68.0,29.84,East,99,0.0,1.0,94,0.00,,,0.16,weatherlink.com 1.10,2013-06-27 01:49:00,
2013-06-26 22:04:00,69.5,68.0,29.83,East,98,0.0,1.0,94,0.00,,,0.16,weatherlink.com 1.10,2013-06-27 02:04:00,
2013-06-26 22:19:00,69.3,68.0,29.84,ESE,113,0.0,1.0,94,0.00,,,0.16,weatherlink.com 1.10,2013-06-27 02:19:00,
2013-06-26 22:34:00,69.2,68.0,29.84,ESE,113,0.0,1.0,94,0.00,,,0.16,weatherlink.com 1.10,2013-06-27 02:34:00,
2013-06-26 22:49:00,69.3,68.0,29.84,SSE,165,1.0,1.0,94,0.00,,,0.16,weatherlink.com 1.10,2013-06-27 02:49:00,
2013-06-26 23:04:00,69.2,68.0,29.84,SE,132,0.0,2.0,94,0.00,,,0.16,weatherlink.com 1.10,2013-06-27 03:04:00,
2013-06-26 23:19:00,69.1,67.0,29.85,South,172,0.0,2.0,94,0.00,,,0.16,weatherlink.com 1.10,2013-06-27 03:19:00,
2013-06-26 23:34:00,69.1,67.0,29.84,South,186,0.0,1.0,94,0.00,,,0.16,weatherlink.com 1.10,2013-06-27 03:34:00,
2013-06-26 23:49:00,69.0,67.0,29.84,SSW,211,0.0,3.0,94,0.00,,,0.16,weatherlink.com 1.10,2013-06-27 03:49:00,